Hourly Weather Uige

Today, 6 August, Thursday

Time Temperature Precipitation Wind Pressure Humidity
00:00 +19°C° 0 mm 1 mps 692 mmHg 81%
01:00 +18°C° 0 mm 1 mps 692 mmHg 88%
02:00 +19°C° 0 mm 1 mps 692 mmHg 88%
03:00 +19°C° 0 mm 1 mps 692 mmHg 88%
04:00 +19°C° 0 mm 1 mps 692 mmHg 89%
05:00 +20°C° 0 mm 1 mps 692 mmHg 86%
06:00 +20°C° 0 mm 1 mps 692 mmHg 84%
07:00 +20°C° 0 mm 1 mps 693 mmHg 82%
08:00 +23°C° 0 mm 1 mps 693 mmHg 71%
09:00 +26°C° 0 mm 1 mps 694 mmHg 60%
10:00 +28°C° 0 mm 1 mps 694 mmHg 48%
11:00 +31°C° 0 mm 1 mps 694 mmHg 41%
12:00 +34°C° 0 mm 1 mps 694 mmHg 33%
13:00 +37°C° 0 mm 1 mps 693 mmHg 25%
14:00 +36°C° 0 mm 1 mps 692 mmHg 26%
15:00 +36°C° 0 mm 2 mps 692 mmHg 27%
16:00 +35°C° 0 mm 2 mps 691 mmHg 27%
17:00 +32°C° 0 mm 2 mps 691 mmHg 33%
18:00 +29°C° 0 mm 2 mps 691 mmHg 38%
19:00 +27°C° 0 mm 2 mps 691 mmHg 43%
20:00 +25°C° 0 mm 1 mps 692 mmHg 53%
21:00 +23°C° 0 mm 1 mps 692 mmHg 64%
22:00 +20°C° 0 mm 1 mps 693 mmHg 74%
23:00 +19°C° 0 mm 1 mps 692 mmHg 82%

Tomorrow, 7 August, Friday

Time Temperature Precipitation Wind Pressure Humidity
00:00 +18°C° 0 mm 1 mps 692 mmHg 89%
01:00 +16°C° 0 mm 1 mps 692 mmHg 97%
02:00 +18°C° 0 mm 1 mps 692 mmHg 94%
03:00 +18°C° 0 mm 1 mps 692 mmHg 92%
04:00 +19°C° 0 mm 1 mps 692 mmHg 90%
05:00 +19°C° 0 mm 1 mps 692 mmHg 88%
06:00 +19°C° 0 mm 1 mps 693 mmHg 86%
07:00 +19°C° 0 mm 1 mps 693 mmHg 83%
08:00 +22°C° 0 mm 1 mps 694 mmHg 70%
09:00 +25°C° 0 mm 1 mps 694 mmHg 57%
10:00 +29°C° 0 mm 1 mps 695 mmHg 44%
11:00 +31°C° 0 mm 2 mps 695 mmHg 38%
12:00 +34°C° 0 mm 2 mps 694 mmHg 32%
13:00 +36°C° 0 mm 2 mps 694 mmHg 26%
14:00 +36°C° 0 mm 2 mps 693 mmHg 26%
15:00 +35°C° 0 mm 3 mps 692 mmHg 26%
16:00 +35°C° 0 mm 3 mps 691 mmHg 25%
17:00 +31°C° 0 mm 3 mps 692 mmHg 32%
18:00 +29°C° 0 mm 2 mps 692 mmHg 39%
19:00 +26°C° 0 mm 2 mps 692 mmHg 46%
20:00 +24°C° 0 mm 2 mps 692 mmHg 57%
21:00 +21°C° 0 mm 1 mps 693 mmHg 68%
22:00 +19°C° 0 mm 1 mps 693 mmHg 79%
23:00 +18°C° 0 mm 1 mps 693 mmHg 84%

Day after tomorrow, 8 August, Saturday

Time Temperature Precipitation Wind Pressure Humidity
00:00 +18°C° 0 mm 1 mps 693 mmHg 90%
01:00 +16°C° 0 mm 1 mps 692 mmHg 96%
02:00 +16°C° 0 mm 1 mps 692 mmHg 94%
03:00 +16°C° 0 mm 1 mps 692 mmHg 91%
04:00 +18°C° 0 mm 1 mps 692 mmHg 89%
05:00 +18°C° 0 mm 1 mps 693 mmHg 87%
06:00 +18°C° 0 mm 1 mps 693 mmHg 85%
07:00 +18°C° 0 mm 1 mps 694 mmHg 83%
08:00 +21°C° 0 mm 1 mps 694 mmHg 69%
09:00 +25°C° 0 mm 1 mps 695 mmHg 56%
10:00 +28°C° 0 mm 1 mps 695 mmHg 42%
11:00 +30°C° 0 mm 2 mps 695 mmHg 36%
12:00 +32°C° 0 mm 2 mps 694 mmHg 30%
13:00 +35°C° 0 mm 2 mps 693 mmHg 24%
14:00 +35°C° 0 mm 2 mps 693 mmHg 24%
15:00 +35°C° 0 mm 2 mps 692 mmHg 23%
16:00 +35°C° 0 mm 3 mps 691 mmHg 22%
17:00 +31°C° 0 mm 3 mps 691 mmHg 28%
18:00 +28°C° 0 mm 2 mps 692 mmHg 35%
19:00 +25°C° 0 mm 2 mps 692 mmHg 41%
20:00 +23°C° 0 mm 2 mps 692 mmHg 53%
21:00 +20°C° 0 mm 2 mps 692 mmHg 66%
22:00 +18°C° 0 mm 1 mps 693 mmHg 78%
23:00 +16°C° 0 mm 1 mps 693 mmHg 84%

9 August, Sunday

Time Temperature Precipitation Wind Pressure Humidity
00:00 +15°C° 0 mm 1 mps 692 mmHg 91%
01:00 +14°C° 0 mm 1 mps 692 mmHg 97%
02:00 +15°C° 0 mm 1 mps 692 mmHg 94%
03:00 +15°C° 0 mm 1 mps 692 mmHg 92%
04:00 +16°C° 0 mm 1 mps 691 mmHg 90%
05:00 +16°C° 0 mm 1 mps 692 mmHg 87%
06:00 +16°C° 0 mm 1 mps 692 mmHg 85%
07:00 +16°C° 0 mm 1 mps 693 mmHg 82%
08:00 +21°C° 0 mm 1 mps 693 mmHg 66%
09:00 +24°C° 0 mm 1 mps 694 mmHg 51%
10:00 +28°C° 0 mm 2 mps 695 mmHg 35%
11:00 +30°C° 0 mm 2 mps 694 mmHg 31%
12:00 +32°C° 0 mm 2 mps 693 mmHg 26%
13:00 +35°C° 0 mm 2 mps 693 mmHg 21%
14:00 +34°C° 0 mm 3 mps 692 mmHg 22%
15:00 +34°C° 0 mm 3 mps 691 mmHg 22%
16:00 +34°C° 0 mm 3 mps 691 mmHg 22%
17:00 +30°C° 0 mm 3 mps 691 mmHg 28%
18:00 +27°C° 0 mm 2 mps 691 mmHg 35%
19:00 +24°C° 0 mm 2 mps 691 mmHg 42%
20:00 +21°C° 0 mm 2 mps 691 mmHg 50%
21:00 +20°C° 0 mm 1 mps 692 mmHg 59%
22:00 +19°C° 0 mm 1 mps 692 mmHg 67%
23:00 +16°C° 0 mm 1 mps 692 mmHg 76%

10 August, Monday

Time Temperature Precipitation Wind Pressure Humidity
00:00 +15°C° 0 mm 1 mps 691 mmHg 84%
01:00 +14°C° 0 mm 1 mps 691 mmHg 92%
02:00 +14°C° 0 mm 1 mps 691 mmHg 93%
03:00 +14°C° 0 mm 1 mps 691 mmHg 94%
04:00 +14°C° 0 mm 1 mps 690 mmHg 95%
05:00 +14°C° 0 mm 1 mps 691 mmHg 93%
06:00 +15°C° 0 mm 1 mps 691 mmHg 90%
07:00 +16°C° 0 mm 1 mps 692 mmHg 87%
08:00 +19°C° 0 mm 1 mps 692 mmHg 74%
09:00 +22°C° 0 mm 1 mps 693 mmHg 62%
10:00 +25°C° 0 mm 1 mps 694 mmHg 49%
11:00 +27°C° 0 mm 1 mps 693 mmHg 42%
12:00 +30°C° 0 mm 2 mps 692 mmHg 34%
13:00 +32°C° 0 mm 2 mps 692 mmHg 27%
14:00 +32°C° 0 mm 2 mps 691 mmHg 27%
15:00 +33°C° 0 mm 3 mps 691 mmHg 27%
16:00 +33°C° 0 mm 3 mps 690 mmHg 27%
17:00 +29°C° 0 mm 3 mps 690 mmHg 33%
18:00 +27°C° 0 mm 2 mps 691 mmHg 39%
19:00 +24°C° 0 mm 2 mps 691 mmHg 44%
20:00 +21°C° 0 mm 2 mps 691 mmHg 53%
21:00 +20°C° 0 mm 1 mps 692 mmHg 62%
22:00 +18°C° 0 mm 1 mps 692 mmHg 71%
23:00 +16°C° 0 mm 1 mps 692 mmHg 79%

11 August, Tuesday

Time Temperature Precipitation Wind Pressure Humidity
00:00 +15°C° 0 mm 1 mps 691 mmHg 88%
01:00 +13°C° 0 mm 0 mps 691 mmHg 96%
02:00 +13°C° 0 mm 0 mps 691 mmHg 95%
03:00 +14°C° 0 mm 1 mps 691 mmHg 94%
04:00 +15°C° 0 mm 1 mps 691 mmHg 92%
05:00 +14°C° 0 mm 0 mps 691 mmHg 90%
06:00 +15°C° 0 mm 0 mps 692 mmHg 88%
07:00 +15°C° 0 mm 0 mps 692 mmHg 85%
08:00 +21°C° 0 mm 1 mps 693 mmHg 69%
09:00 +25°C° 0 mm 1 mps 693 mmHg 52%
10:00 +29°C° 0 mm 1 mps 694 mmHg 36%
11:00 +31°C° 0 mm 1 mps 693 mmHg 32%
12:00 +32°C° 0 mm 2 mps 693 mmHg 28%
13:00 +35°C° 0 mm 2 mps 692 mmHg 24%
14:00 +35°C° 0 mm 3 mps 692 mmHg 25%
15:00 +34°C° 0 mm 3 mps 691 mmHg 25%
16:00 +34°C° 0 mm 3 mps 690 mmHg 25%
17:00 +30°C° 0 mm 3 mps 690 mmHg 30%
18:00 +28°C° 0 mm 2 mps 691 mmHg 36%
19:00 +25°C° 0 mm 2 mps 691 mmHg 41%
20:00 +23°C° 0 mm 1 mps 691 mmHg 49%
21:00 +21°C° 0 mm 1 mps 692 mmHg 56%
22:00 +20°C° 0 mm 1 mps 692 mmHg 63%
23:00 +18°C° 0 mm 1 mps 692 mmHg 73%
Show more